Time,TemperatureF,DewpointF,PressureIn,WindDirection,WindDirectionDegrees,WindSpeedMPH,WindSpeedGustMPH,Humidity,HourlyPrecipIn,Conditions,Clouds,dailyrainin,SoftwareType,DateUTC
2013-03-19 00:07:00,43.2,34.0,30.02,NE,47,0.0,-999.0,71,-99.99,,,0.00,weatherlink.com 1.10,2013-03-19 07:07:00,
2013-03-19 00:22:00,43.2,34.0,30.01,NE,48,4.0,-999.0,71,-99.99,,,0.00,weatherlink.com 1.10,2013-03-19 07:22:00,
2013-03-19 00:37:00,43.5,35.0,30.01,NNE,33,2.0,-999.0,72,-99.99,,,0.00,weatherlink.com 1.10,2013-03-19 07:37:00,
2013-03-19 00:52:00,43.3,35.0,30.00,NE,36,2.0,-999.0,72,-99.99,,,0.00,weatherlink.com 1.10,2013-03-19 07:52:00,
2013-03-19 01:07:00,43.2,35.0,29.99,NE,45,3.0,-999.0,72,-99.99,,,0.00,weatherlink.com 1.10,2013-03-19 08:07:00,
2013-03-19 01:21:00,42.9,35.0,29.99,NE,49,5.0,-999.0,73,-99.99,,,0.00,weatherlink.com 1.10,2013-03-19 08:21:00,
2013-03-19 01:38:00,42.6,35.0,29.99,NE,35,3.0,-999.0,75,-99.99,,,0.00,weatherlink.com 1.10,2013-03-19 08:38:00,
2013-03-19 01:52:00,42.5,35.0,29.98,NE,40,3.0,-999.0,76,-99.99,,,0.00,weatherlink.com 1.10,2013-03-19 08:52:00,
2013-03-19 02:07:00,42.5,35.0,29.98,NE,47,6.0,-999.0,76,-99.99,,,0.00,weatherlink.com 1.10,2013-03-19 09:07:00,
2013-03-19 02:22:00,42.3,36.0,29.98,NNE,31,0.0,-999.0,77,-99.99,,,0.00,weatherlink.com 1.10,2013-03-19 09:22:00,
2013-03-19 02:36:00,42.2,35.0,29.98,NE,46,0.0,-999.0,77,-99.99,,,0.00,weatherlink.com 1.10,2013-03-19 09:36:00,
2013-03-19 02:51:00,42.3,36.0,29.98,NE,44,7.0,-999.0,78,-99.99,,,0.00,weatherlink.com 1.10,2013-03-19 09:51:00,
2013-03-19 03:07:00,42.1,36.0,29.97,NNE,22,9.0,-999.0,79,-99.99,,,0.00,weatherlink.com 1.10,2013-03-19 10:07:00,
2013-03-19 03:22:00,41.9,36.0,29.97,NE,43,0.0,-999.0,79,-99.99,,,0.00,weatherlink.com 1.10,2013-03-19 10:22:00,
2013-03-19 03:36:00,41.5,36.0,29.97,East,92,0.0,-999.0,80,-99.99,,,0.00,weatherlink.com 1.10,2013-03-19 10:36:00,
2013-03-19 03:52:00,41.2,36.0,29.96,NE,41,0.0,-999.0,80,-99.99,,,0.00,weatherlink.com 1.10,2013-03-19 10:52:00,
2013-03-19 04:06:00,40.8,36.0,29.96,NE,41,0.0,-999.0,82,-99.99,,,0.00,weatherlink.com 1.10,2013-03-19 11:06:00,
2013-03-19 04:23:00,40.6,36.0,29.95,NE,41,0.0,-999.0,83,-99.99,,,0.00,weatherlink.com 1.10,2013-03-19 11:23:00,
2013-03-19 04:37:00,40.5,36.0,29.95,NE,41,0.0,-999.0,84,-99.99,,,0.00,weatherlink.com 1.10,2013-03-19 11:37:00,
2013-03-19 04:52:00,40.3,36.0,29.95,NE,41,0.0,-999.0,85,-99.99,,,0.00,weatherlink.com 1.10,2013-03-19 11:52:00,
2013-03-19 05:07:00,40.1,36.0,29.95,NE,41,0.0,-999.0,86,-99.99,,,0.00,weatherlink.com 1.10,2013-03-19 12:07:00,
2013-03-19 05:22:00,39.6,36.0,29.94,NE,41,0.0,-999.0,86,-99.99,,,0.00,weatherlink.com 1.10,2013-03-19 12:22:00,
2013-03-19 05:36:00,39.5,36.0,29.94,NE,41,0.0,-999.0,87,-99.99,,,0.00,weatherlink.com 1.10,2013-03-19 12:36:00,
2013-03-19 05:53:00,39.5,36.0,29.94,NE,41,0.0,-999.0,87,-99.99,,,0.00,weatherlink.com 1.10,2013-03-19 12:53:00,
2013-03-19 06:07:00,39.3,36.0,29.94,NE,41,0.0,-999.0,86,-99.99,,,0.00,weatherlink.com 1.10,2013-03-19 13:07:00,
2013-03-19 06:22:00,39.3,36.0,29.94,NE,41,0.0,-999.0,86,-99.99,,,0.00,weatherlink.com 1.10,2013-03-19 13:22:00,
2013-03-19 06:36:00,39.2,36.0,29.94,NE,41,0.0,-999.0,88,-99.99,,,0.00,weatherlink.com 1.10,2013-03-19 13:36:00,
2013-03-19 06:52:00,38.9,36.0,29.94,NE,41,0.0,-999.0,88,-99.99,,,0.00,weatherlink.com 1.10,2013-03-19 13:52:00,
2013-03-19 07:07:00,38.6,36.0,29.94,NE,41,0.0,-999.0,89,-99.99,,,0.00,weatherlink.com 1.10,2013-03-19 14:07:00,
2013-03-19 07:21:00,38.5,36.0,29.94,NE,41,0.0,-999.0,89,-99.99,,,0.00,weatherlink.com 1.10,2013-03-19 14:21:00,
2013-03-19 07:37:00,38.5,36.0,29.94,NE,41,0.0,-999.0,90,-99.99,,,0.00,weatherlink.com 1.10,2013-03-19 14:37:00,
2013-03-19 07:52:00,38.6,36.0,29.94,NE,41,0.0,-999.0,91,-99.99,,,0.00,weatherlink.com 1.10,2013-03-19 14:52:00,
2013-03-19 08:07:00,38.8,36.0,29.94,NE,41,0.0,-999.0,91,-99.99,,,0.00,weatherlink.com 1.10,2013-03-19 15:07:00,
2013-03-19 08:22:00,39.2,37.0,29.94,NE,41,0.0,-999.0,90,-99.99,,,0.00,weatherlink.com 1.10,2013-03-19 15:22:00,
2013-03-19 08:36:00,39.5,37.0,29.93,NE,41,0.0,-999.0,90,-99.99,,,0.00,weatherlink.com 1.10,2013-03-19 15:36:00,
2013-03-19 08:52:00,39.9,37.0,29.93,NE,41,0.0,-999.0,89,-99.99,,,0.00,weatherlink.com 1.10,2013-03-19 15:52:00,
2013-03-19 09:08:00,40.3,37.0,29.93,NE,41,0.0,-999.0,88,-99.99,,,0.00,weatherlink.com 1.10,2013-03-19 16:08:00,
2013-03-19 09:22:00,40.5,37.0,29.93,NE,41,0.0,-999.0,88,-99.99,,,0.00,weatherlink.com 1.10,2013-03-19 16:22:00,
2013-03-19 09:36:00,40.6,37.0,29.93,NE,41,0.0,-999.0,87,-99.99,,,0.00,weatherlink.com 1.10,2013-03-19 16:36:00,
2013-03-19 10:07:00,41.2,38.0,29.92,NE,41,0.0,-999.0,87,-99.99,,,0.00,weatherlink.com 1.10,2013-03-19 17:07:00,
2013-03-19 10:21:00,40.9,38.0,29.91,NE,41,0.0,-999.0,89,-99.99,,,0.01,weatherlink.com 1.10,2013-03-19 17:21:00,
2013-03-19 10:37:00,41.5,39.0,29.91,NE,41,0.0,-999.0,91,-99.99,,,0.01,weatherlink.com 1.10,2013-03-19 17:37:00,
2013-03-19 10:52:00,41.9,39.0,29.92,NE,41,0.0,-999.0,90,-99.99,,,0.01,weatherlink.com 1.10,2013-03-19 17:52:00,
2013-03-19 11:07:00,42.3,40.0,29.91,NE,41,0.0,-999.0,90,-99.99,,,0.01,weatherlink.com 1.10,2013-03-19 18:07:00,
2013-03-19 11:23:00,43.1,40.0,29.91,NE,41,0.0,-999.0,87,-99.99,,,0.01,weatherlink.com 1.10,2013-03-19 18:23:00,
2013-03-19 11:38:00,43.3,40.0,29.89,NE,37,3.0,-999.0,89,-99.99,,,0.01,weatherlink.com 1.10,2013-03-19 18:38:00,
2013-03-19 11:52:00,43.8,41.0,29.89,NE,40,0.0,-999.0,88,-99.99,,,0.01,weatherlink.com 1.10,2013-03-19 18:52:00,
2013-03-19 12:07:00,44.1,40.0,29.89,NE,40,0.0,-999.0,85,-99.99,,,0.01,weatherlink.com 1.10,2013-03-19 19:07:00,
2013-03-19 12:22:00,44.6,41.0,29.89,NNE,30,1.0,-999.0,86,-99.99,,,0.01,weatherlink.com 1.10,2013-03-19 19:22:00,
2013-03-19 12:37:00,45.2,42.0,29.88,NNE,30,0.0,-999.0,87,-99.99,,,0.01,weatherlink.com 1.10,2013-03-19 19:37:00,
2013-03-19 12:52:00,45.2,41.0,29.87,NNE,24,1.0,-999.0,85,-99.99,,,0.01,weatherlink.com 1.10,2013-03-19 19:52:00,
2013-03-19 13:07:00,45.7,41.0,29.88,NNE,24,0.0,-999.0,84,-99.99,,,0.01,weatherlink.com 1.10,2013-03-19 20:07:00,
2013-03-19 13:22:00,45.2,41.0,29.86,NNE,24,0.0,-999.0,85,-99.99,,,0.01,weatherlink.com 1.10,2013-03-19 20:22:00,
2013-03-19 13:37:00,45.4,41.0,29.86,NNE,24,1.0,-999.0,85,-99.99,,,0.01,weatherlink.com 1.10,2013-03-19 20:37:00,
2013-03-19 14:07:00,45.2,41.0,29.84,NNE,24,0.0,-999.0,84,-99.99,,,0.01,weatherlink.com 1.10,2013-03-19 21:07:00,
2013-03-19 14:21:00,46.1,41.0,29.82,NNE,24,0.0,-999.0,82,-99.99,,,0.01,weatherlink.com 1.10,2013-03-19 21:21:00,
2013-03-19 14:36:00,47.0,42.0,29.82,NNE,25,0.0,-999.0,82,-99.99,,,0.01,weatherlink.com 1.10,2013-03-19 21:36:00,
2013-03-19 14:53:00,47.1,41.0,29.81,NNE,25,0.0,-999.0,80,-99.99,,,0.01,weatherlink.com 1.10,2013-03-19 21:53:00,
2013-03-19 15:07:00,47.3,41.0,29.80,NNE,25,0.0,-999.0,80,-99.99,,,0.01,weatherlink.com 1.10,2013-03-19 22:07:00,
2013-03-19 15:21:00,46.8,41.0,29.80,NNE,25,0.0,-999.0,80,-99.99,,,0.01,weatherlink.com 1.10,2013-03-19 22:21:00,
2013-03-19 15:38:00,46.5,42.0,29.79,NNE,25,0.0,-999.0,85,-99.99,,,0.02,weatherlink.com 1.10,2013-03-19 22:38:00,
2013-03-19 15:54:00,45.2,42.0,29.79,NNE,25,0.0,-999.0,88,-99.99,,,0.03,weatherlink.com 1.10,2013-03-19 22:54:00,
2013-03-19 16:07:00,45.1,43.0,29.78,NNE,25,0.0,-999.0,92,-99.99,,,0.04,weatherlink.com 1.10,2013-03-19 23:07:00,
2013-03-19 16:23:00,44.3,42.0,29.78,NNE,25,0.0,-999.0,92,-99.99,,,0.05,weatherlink.com 1.10,2013-03-19 23:23:00,
2013-03-19 16:37:00,44.5,43.0,29.78,NNE,25,0.0,-999.0,94,-99.99,,,0.06,weatherlink.com 1.10,2013-03-19 23:37:00,
2013-03-19 16:51:00,44.3,43.0,29.77,NNE,25,0.0,-999.0,95,-99.99,,,0.07,weatherlink.com 1.10,2013-03-19 23:51:00,
2013-03-19 17:08:00,44.5,44.0,29.76,NNE,25,0.0,-999.0,96,-99.99,,,0.08,weatherlink.com 1.10,2013-03-20 00:08:00,
2013-03-19 17:22:00,44.3,43.0,29.75,NNE,25,0.0,-999.0,96,-99.99,,,0.09,weatherlink.com 1.10,2013-03-20 00:22:00,
2013-03-19 17:37:00,44.3,43.0,29.74,NNE,25,0.0,-999.0,96,-99.99,,,0.09,weatherlink.com 1.10,2013-03-20 00:37:00,
2013-03-19 17:52:00,44.1,43.0,29.73,NNE,25,0.0,-999.0,96,-99.99,,,0.10,weatherlink.com 1.10,2013-03-20 00:52:00,
2013-03-19 18:07:00,43.9,43.0,29.72,NNE,25,0.0,-999.0,96,-99.99,,,0.11,weatherlink.com 1.10,2013-03-20 01:07:00,
2013-03-19 18:22:00,43.5,43.0,29.71,NNE,25,0.0,-999.0,96,-99.99,,,0.14,weatherlink.com 1.10,2013-03-20 01:22:00,
2013-03-19 18:37:00,43.5,43.0,29.71,NNE,25,0.0,-999.0,97,-99.99,,,0.17,weatherlink.com 1.10,2013-03-20 01:37:00,
2013-03-19 18:51:00,43.5,43.0,29.69,NNE,25,0.0,-999.0,97,-99.99,,,0.17,weatherlink.com 1.10,2013-03-20 01:51:00,
2013-03-19 19:07:00,43.3,43.0,29.68,NNE,25,0.0,-999.0,97,-99.99,,,0.18,weatherlink.com 1.10,2013-03-20 02:07:00,
2013-03-19 19:21:00,43.2,42.0,29.67,NNE,25,0.0,-999.0,97,-99.99,,,0.19,weatherlink.com 1.10,2013-03-20 02:21:00,
2013-03-19 19:37:00,43.2,42.0,29.66,NNE,25,0.0,-999.0,97,-99.99,,,0.19,weatherlink.com 1.10,2013-03-20 02:37:00,
2013-03-19 19:52:00,43.2,43.0,29.65,NNE,25,0.0,-999.0,98,-99.99,,,0.20,weatherlink.com 1.10,2013-03-20 02:52:00,
2013-03-19 20:07:00,43.2,43.0,29.64,NNE,25,0.0,-999.0,98,-99.99,,,0.21,weatherlink.com 1.10,2013-03-20 03:07:00,
2013-03-19 20:23:00,43.3,43.0,29.64,NNW,337,0.0,-999.0,98,-99.99,,,0.23,weatherlink.com 1.10,2013-03-20 03:23:00,
2013-03-19 20:37:00,43.6,43.0,29.64,NNW,337,0.0,-999.0,98,-99.99,,,0.25,weatherlink.com 1.10,2013-03-20 03:37:00,
2013-03-19 20:52:00,43.8,44.0,29.63,NNW,337,0.0,-999.0,99,-99.99,,,0.27,weatherlink.com 1.10,2013-03-20 03:52:00,
2013-03-19 21:08:00,43.9,44.0,29.63,NNW,337,0.0,-999.0,99,-99.99,,,0.36,weatherlink.com 1.10,2013-03-20 04:08:00,
2013-03-19 21:22:00,44.2,44.0,29.63,NNW,337,0.0,-999.0,99,-99.99,,,0.40,weatherlink.com 1.10,2013-03-20 04:22:00,
2013-03-19 21:37:00,44.3,44.0,29.62,NNW,337,0.0,-999.0,99,-99.99,,,0.42,weatherlink.com 1.10,2013-03-20 04:37:00,
2013-03-19 21:52:00,44.3,44.0,29.61,NNW,337,0.0,-999.0,99,-99.99,,,0.43,weatherlink.com 1.10,2013-03-20 04:52:00,
2013-03-19 22:07:00,44.3,44.0,29.60,NNW,337,0.0,-999.0,99,-99.99,,,0.43,weatherlink.com 1.10,2013-03-20 05:07:00,
2013-03-19 22:21:00,44.6,44.0,29.59,NNW,337,0.0,-999.0,99,-99.99,,,0.43,weatherlink.com 1.10,2013-03-20 05:21:00,
2013-03-19 22:37:00,45.2,45.0,29.60,NNW,337,0.0,-999.0,99,-99.99,,,0.46,weatherlink.com 1.10,2013-03-20 05:37:00,
2013-03-19 22:52:00,45.5,45.0,29.60,NNW,337,0.0,-999.0,99,-99.99,,,0.51,weatherlink.com 1.10,2013-03-20 05:52:00,
2013-03-19 23:07:00,45.8,46.0,29.59,NNW,337,0.0,-999.0,99,-99.99,,,0.53,weatherlink.com 1.10,2013-03-20 06:07:00,
2013-03-19 23:22:00,46.1,46.0,29.58,NNW,337,0.0,-999.0,99,-99.99,,,0.56,weatherlink.com 1.10,2013-03-20 06:22:00,
2013-03-19 23:37:00,46.1,46.0,29.58,NNW,337,0.0,-999.0,99,-99.99,,,0.59,weatherlink.com 1.10,2013-03-20 06:37:00,
2013-03-19 23:52:00,46.2,46.0,29.58,NNW,337,0.0,-999.0,99,-99.99,,,0.62,weatherlink.com 1.10,2013-03-20 06:52:00,